Time,TemperatureF,DewpointF,PressureIn,WindDirection,WindDirectionDegrees,WindSpeedMPH,WindSpeedGustMPH,Humidity,HourlyPrecipIn,Conditions,Clouds,dailyrainin,SoftwareType,DateUTC
2013-09-22 00:00:00,58.6,58.6,29.53,WSW,243,0.0,2.0,100,0.00,RA,OVC,0.00,WeatherDisplay:10.37,2013-09-22 04:00:00,
2013-09-22 00:05:00,58.6,58.6,29.53,WSW,252,0.0,3.0,100,0.00,RA,OVC,0.00,WeatherDisplay:10.37,2013-09-22 04:05:00,
2013-09-22 00:10:00,58.6,58.6,29.53,West,269,1.0,3.0,100,0.01,RA,OVC,0.01,WeatherDisplay:10.37,2013-09-22 04:10:00,
2013-09-22 00:14:00,58.5,58.5,29.53,WSW,246,0.0,3.0,100,0.00,RA,OVC,0.01,WeatherDisplay:10.37,2013-09-22 04:14:00,
2013-09-22 00:19:00,58.5,58.5,29.53,WNW,292,0.0,2.0,100,0.00,OVC,OVC,0.01,WeatherDisplay:10.37,2013-09-22 04:19:00,
2013-09-22 00:24:00,58.4,58.4,29.53,West,272,1.0,5.0,100,0.01,RA,OVC,0.02,WeatherDisplay:10.37,2013-09-22 04:24:00,
2013-09-22 00:30:00,58.3,58.3,29.53,WSW,257,1.0,5.0,100,0.00,RA,OVC,0.02,WeatherDisplay:10.37,2013-09-22 04:30:00,
2013-09-22 00:34:00,58.2,58.2,29.53,WNW,283,1.0,4.0,100,0.00,OVC,OVC,0.02,WeatherDisplay:10.37,2013-09-22 04:34:00,
2013-09-22 00:40:00,58.1,58.1,29.53,WNW,300,0.0,2.0,100,0.01,RA,OVC,0.02,WeatherDisplay:10.37,2013-09-22 04:40:00,
2013-09-22 00:44:00,58.1,58.1,29.52,WNW,288,0.0,3.0,100,0.00,RA,OVC,0.02,WeatherDisplay:10.37,2013-09-22 04:44:00,
2013-09-22 00:50:00,58.0,58.0,29.52,WSW,257,0.0,2.0,100,0.00,OVC,OVC,0.03,WeatherDisplay:10.37,2013-09-22 04:50:00,
2013-09-22 00:54:00,58.0,58.0,29.52,WSW,242,1.0,6.0,100,0.01,RA,OVC,0.03,WeatherDisplay:10.37,2013-09-22 04:54:00,
2013-09-22 01:00:00,58.0,58.0,29.52,WSW,257,0.0,2.0,100,0.00,RA,OVC,0.03,WeatherDisplay:10.37,2013-09-22 05:00:00,
2013-09-22 01:04:00,58.0,58.0,29.52,West,275,0.0,3.0,100,0.00,OVC,OVC,0.03,WeatherDisplay:10.37,2013-09-22 05:04:00,
2013-09-22 01:10:00,58.0,58.0,29.52,WSW,254,1.0,5.0,100,0.00,OVC,OVC,0.03,WeatherDisplay:10.37,2013-09-22 05:10:00,
2013-09-22 01:14:00,58.0,58.0,29.52,West,266,0.0,2.0,100,0.01,RA,OVC,0.04,WeatherDisplay:10.37,2013-09-22 05:14:00,
2013-09-22 01:19:00,58.0,58.0,29.52,West,275,0.0,0.0,100,0.00,RA,OVC,0.04,WeatherDisplay:10.37,2013-09-22 05:19:00,
2013-09-22 01:24:00,58.0,58.0,29.52,West,274,0.0,4.0,100,0.00,OVC,OVC,0.04,WeatherDisplay:10.37,2013-09-22 05:24:00,
2013-09-22 01:29:00,57.9,57.9,29.51,West,269,2.0,5.0,100,0.00,OVC,OVC,0.04,WeatherDisplay:10.37,2013-09-22 05:29:00,
2013-09-22 01:34:00,57.9,57.9,29.52,West,262,0.0,3.0,100,0.00,OVC,OVC,0.04,WeatherDisplay:10.37,2013-09-22 05:34:00,
2013-09-22 01:40:00,57.9,57.9,29.52,WNW,284,0.0,2.0,100,0.00,OVC,OVC,0.04,WeatherDisplay:10.37,2013-09-22 05:40:00,
2013-09-22 01:45:00,57.9,57.9,29.52,WNW,291,0.0,3.0,100,0.00,OVC,OVC,0.04,WeatherDisplay:10.37,2013-09-22 05:45:00,
2013-09-22 01:50:00,57.9,57.9,29.52,WSW,241,1.0,5.0,100,0.00,OVC,OVC,0.04,WeatherDisplay:10.37,2013-09-22 05:50:00,
2013-09-22 01:54:00,57.9,57.9,29.52,WNW,288,0.0,6.0,100,0.00,OVC,OVC,0.04,WeatherDisplay:10.37,2013-09-22 05:54:00,
2013-09-22 02:00:00,57.8,57.8,29.51,West,276,0.0,3.0,100,0.00,OVC,OVC,0.04,WeatherDisplay:10.37,2013-09-22 06:00:00,
2013-09-22 02:04:00,57.8,57.8,29.51,WSW,257,0.0,2.0,100,0.00,OVC,OVC,0.04,WeatherDisplay:10.37,2013-09-22 06:04:00,
2013-09-22 02:10:00,57.8,57.8,29.51,West,273,1.0,5.0,100,0.00,OVC,OVC,0.04,WeatherDisplay:10.37,2013-09-22 06:10:00,
2013-09-22 02:14:00,57.7,57.7,29.51,SW,233,0.0,1.0,100,0.00,OVC,OVC,0.04,WeatherDisplay:10.37,2013-09-22 06:14:00,
2013-09-22 02:20:00,57.7,57.7,29.52,SW,232,0.0,2.0,100,0.00,OVC,OVC,0.04,WeatherDisplay:10.37,2013-09-22 06:20:00,
2013-09-22 02:24:00,57.7,57.7,29.51,West,264,0.0,3.0,100,0.00,OVC,OVC,0.04,WeatherDisplay:10.37,2013-09-22 06:24:00,
2013-09-22 02:29:00,57.7,57.7,29.51,West,265,0.0,2.0,100,0.01,RA,OVC,0.05,WeatherDisplay:10.37,2013-09-22 06:29:00,
2013-09-22 02:34:00,57.7,57.7,29.51,WSW,251,0.0,1.0,100,0.00,RA,OVC,0.05,WeatherDisplay:10.37,2013-09-22 06:34:00,
2013-09-22 02:39:00,57.7,57.7,29.51,WSW,244,1.0,4.0,100,0.00,OVC,OVC,0.05,WeatherDisplay:10.37,2013-09-22 06:39:00,
2013-09-22 02:44:00,57.7,57.7,29.52,SW,226,1.0,4.0,100,0.00,OVC,OVC,0.05,WeatherDisplay:10.37,2013-09-22 06:44:00,
2013-09-22 02:49:00,57.7,57.7,29.51,SSW,193,0.0,1.0,100,0.00,OVC,OVC,0.05,WeatherDisplay:10.37,2013-09-22 06:49:00,
2013-09-22 02:54:00,57.6,57.6,29.51,SSW,208,1.0,4.0,100,0.00,OVC,OVC,0.05,WeatherDisplay:10.37,2013-09-22 06:54:00,
2013-09-22 02:59:00,57.6,57.6,29.50,WSW,256,0.0,4.0,100,0.00,OVC,OVC,0.05,WeatherDisplay:10.37,2013-09-22 06:59:00,
2013-09-22 03:05:00,57.6,57.6,29.51,WSW,253,0.0,2.0,100,0.00,OVC,OVC,0.05,WeatherDisplay:10.37,2013-09-22 07:05:00,
2013-09-22 03:10:00,57.6,57.6,29.50,WSW,242,0.0,0.0,100,0.00,OVC,OVC,0.05,WeatherDisplay:10.37,2013-09-22 07:10:00,
2013-09-22 03:19:00,57.6,57.6,29.51,WSW,254,1.0,4.0,100,0.00,OVC,OVC,0.05,WeatherDisplay:10.37,2013-09-22 07:19:00,
2013-09-22 03:24:00,57.5,57.5,29.51,WSW,256,0.0,1.0,100,0.00,OVC,OVC,0.05,WeatherDisplay:10.37,2013-09-22 07:24:00,
2013-09-22 03:29:00,57.5,57.5,29.50,WSW,249,0.0,1.0,100,0.00,OVC,OVC,0.05,WeatherDisplay:10.37,2013-09-22 07:29:00,
2013-09-22 03:34:00,57.5,57.5,29.50,WSW,252,0.0,4.0,100,0.00,OVC,OVC,0.05,WeatherDisplay:10.37,2013-09-22 07:34:00,
2013-09-22 03:39:00,57.5,57.5,29.50,WSW,252,0.0,2.0,100,0.00,OVC,OVC,0.05,WeatherDisplay:10.37,2013-09-22 07:39:00,
2013-09-22 03:44:00,57.5,57.5,29.50,West,274,0.0,2.0,100,0.01,RA,OVC,0.05,WeatherDisplay:10.37,2013-09-22 07:44:00,
2013-09-22 03:49:00,57.5,57.5,29.50,NW,304,0.0,1.0,100,0.00,RA,OVC,0.05,WeatherDisplay:10.37,2013-09-22 07:49:00,
2013-09-22 03:54:00,57.5,57.5,29.50,NW,304,0.0,1.0,100,0.00,OVC,OVC,0.05,WeatherDisplay:10.37,2013-09-22 07:54:00,
2013-09-22 03:59:00,57.5,57.5,29.50,NW,309,0.0,2.0,100,0.00,OVC,OVC,0.06,WeatherDisplay:10.37,2013-09-22 07:59:00,
2013-09-22 04:05:00,57.5,57.5,29.50,NW,322,0.0,4.0,100,0.01,RA,OVC,0.06,WeatherDisplay:10.37,2013-09-22 08:05:00,
2013-09-22 04:10:00,57.4,57.4,29.51,NW,309,2.0,7.0,100,0.02,RA,OVC,0.09,WeatherDisplay:10.37,2013-09-22 08:10:00,
2013-09-22 04:19:00,56.4,56.4,29.50,NNW,335,0.0,0.0,100,0.00,RA,OVC,0.10,WeatherDisplay:10.37,2013-09-22 08:19:00,
2013-09-22 04:24:00,56.3,56.3,29.50,North,355,0.0,0.0,100,0.01,RA,OVC,0.11,WeatherDisplay:10.37,2013-09-22 08:24:00,
2013-09-22 04:29:00,56.2,56.2,29.50,North,355,0.0,0.0,100,0.00,RA,OVC,0.11,WeatherDisplay:10.37,2013-09-22 08:29:00,
2013-09-22 04:34:00,56.1,56.1,29.50,North,355,0.0,0.0,100,0.00,OVC,OVC,0.11,WeatherDisplay:10.37,2013-09-22 08:34:00,
2013-09-22 04:39:00,56.1,56.1,29.49,North,355,0.0,0.0,100,0.00,OVC,OVC,0.11,WeatherDisplay:10.37,2013-09-22 08:39:00,
2013-09-22 04:44:00,56.1,56.1,29.50,North,355,0.0,0.0,100,0.00,OVC,OVC,0.11,WeatherDisplay:10.37,2013-09-22 08:44:00,
2013-09-22 04:49:00,56.1,56.1,29.50,North,355,0.0,0.0,100,0.00,OVC,OVC,0.11,WeatherDisplay:10.37,2013-09-22 08:49:00,
2013-09-22 04:54:00,56.1,56.1,29.50,North,355,0.0,0.0,100,0.00,OVC,OVC,0.11,WeatherDisplay:10.37,2013-09-22 08:54:00,
2013-09-22 04:59:00,56.1,56.1,29.50,North,355,0.0,0.0,100,0.00,OVC,OVC,0.11,WeatherDisplay:10.37,2013-09-22 08:59:00,
2013-09-22 05:04:00,56.1,56.1,29.51,North,355,0.0,0.0,100,0.00,OVC,OVC,0.11,WeatherDisplay:10.37,2013-09-22 09:04:00,
2013-09-22 05:09:00,56.0,56.0,29.51,North,355,0.0,0.0,100,0.00,OVC,OVC,0.11,WeatherDisplay:10.37,2013-09-22 09:09:00,
2013-09-22 05:14:00,55.9,55.9,29.51,NNW,338,0.0,4.0,100,0.00,OVC,OVC,0.11,WeatherDisplay:10.37,2013-09-22 09:14:00,
2013-09-22 05:19:00,55.9,55.9,29.52,WNW,282,0.0,1.0,100,0.00,OVC,OVC,0.11,WeatherDisplay:10.37,2013-09-22 09:19:00,
2013-09-22 05:24:00,55.8,55.8,29.52,West,271,0.0,1.0,100,0.00,OVC,OVC,0.11,WeatherDisplay:10.37,2013-09-22 09:24:00,
2013-09-22 05:29:00,55.8,55.8,29.52,West,271,0.0,0.0,100,0.00,OVC,OVC,0.11,WeatherDisplay:10.37,2013-09-22 09:29:00,
2013-09-22 05:34:00,55.7,55.7,29.52,West,271,0.0,0.0,100,0.00,OVC,OVC,0.11,WeatherDisplay:10.37,2013-09-22 09:34:00,
2013-09-22 05:39:00,55.7,55.7,29.53,West,273,0.0,1.0,100,0.00,OVC,OVC,0.11,WeatherDisplay:10.37,2013-09-22 09:39:00,
2013-09-22 05:44:00,55.6,55.6,29.53,West,281,0.0,3.0,100,0.00,OVC,OVC,0.11,WeatherDisplay:10.37,2013-09-22 09:44:00,
2013-09-22 05:49:00,55.5,55.5,29.53,NW,304,2.0,5.0,100,0.00,OVC,OVC,0.11,WeatherDisplay:10.37,2013-09-22 09:49:00,
2013-09-22 05:54:00,55.4,55.4,29.53,WNW,294,3.0,5.0,100,0.00,OVC,OVC,0.11,WeatherDisplay:10.37,2013-09-22 09:54:00,
2013-09-22 05:59:00,55.2,55.2,29.53,NW,312,3.0,12.0,100,0.00,OVC,OVC,0.11,WeatherDisplay:10.37,2013-09-22 09:59:00,
2013-09-22 06:04:00,54.8,54.8,29.54,NW,310,5.0,9.0,100,0.00,OVC,OVC,0.11,WeatherDisplay:10.37,2013-09-22 10:04:00,
2013-09-22 06:09:00,54.5,54.5,29.54,WNW,296,2.0,6.0,100,0.00,OVC,OVC,0.11,WeatherDisplay:10.37,2013-09-22 10:09:00,
2013-09-22 06:19:00,54.0,54.0,29.54,WNW,302,2.0,7.0,100,0.00,OVC,OVC,0.11,WeatherDisplay:10.37,2013-09-22 10:19:00,
2013-09-22 06:24:00,53.8,53.8,29.54,NW,308,1.0,6.0,100,0.00,BKN,OVC,0.11,WeatherDisplay:10.37,2013-09-22 10:24:00,
2013-09-22 06:29:00,53.6,53.6,29.55,NW,313,2.0,6.0,100,0.00,BKN,OVC,0.11,WeatherDisplay:10.37,2013-09-22 10:29:00,
2013-09-22 06:34:00,53.4,53.4,29.55,NW,319,1.0,8.0,100,0.00,BKN,OVC,0.11,WeatherDisplay:10.37,2013-09-22 10:34:00,
2013-09-22 06:39:00,53.3,52.5,29.55,NW,314,3.0,8.0,97,0.00,BKN,OVC,0.11,WeatherDisplay:10.37,2013-09-22 10:39:00,
2013-09-22 06:44:00,53.1,52.0,29.55,NW,316,1.0,4.0,96,0.00,BKN,OVC,0.11,WeatherDisplay:10.37,2013-09-22 10:44:00,
2013-09-22 06:49:00,53.0,51.9,29.55,NW,313,3.0,7.0,96,0.00,BKN,OVC,0.11,WeatherDisplay:10.37,2013-09-22 10:49:00,
2013-09-22 06:54:00,52.9,51.8,29.56,NW,320,1.0,7.0,96,0.00,BKN,OVC,0.11,WeatherDisplay:10.37,2013-09-22 10:54:00,
2013-09-22 06:59:00,52.8,51.7,29.56,NW,323,2.0,4.0,96,0.00,BKN,OVC,0.11,WeatherDisplay:10.37,2013-09-22 10:59:00,
2013-09-22 07:04:00,52.6,51.5,29.56,WNW,289,2.0,6.0,96,0.00,BKN,OVC,0.11,WeatherDisplay:10.37,2013-09-22 11:04:00,
2013-09-22 07:10:00,52.5,51.4,29.57,WNW,302,3.0,6.0,96,0.00,BKN,OVC,0.11,WeatherDisplay:10.37,2013-09-22 11:10:00,
2013-09-22 07:19:00,52.1,51.0,29.57,NW,319,3.0,15.0,96,0.00,OVC,OVC,0.11,WeatherDisplay:10.37,2013-09-22 11:19:00,
2013-09-22 07:24:00,51.9,50.5,29.57,NW,320,5.0,13.0,95,0.00,OVC,OVC,0.11,WeatherDisplay:10.37,2013-09-22 11:24:00,
2013-09-22 07:29:00,51.7,50.3,29.57,NNW,341,3.0,13.0,95,0.00,OVC,OVC,0.11,WeatherDisplay:10.37,2013-09-22 11:29:00,
2013-09-22 07:34:00,51.6,49.9,29.57,NNW,343,3.0,7.0,94,0.00,OVC,OVC,0.11,WeatherDisplay:10.37,2013-09-22 11:34:00,
2013-09-22 07:39:00,51.4,49.8,29.58,NNW,336,2.0,12.0,94,0.00,OVC,OVC,0.11,WeatherDisplay:10.37,2013-09-22 11:39:00,
2013-09-22 07:44:00,51.3,49.6,29.58,NW,325,2.0,12.0,94,0.00,OVC,OVC,0.11,WeatherDisplay:10.37,2013-09-22 11:44:00,
2013-09-22 07:49:00,51.2,49.5,29.58,NW,326,1.0,7.0,94,0.00,OVC,OVC,0.11,WeatherDisplay:10.37,2013-09-22 11:49:00,
2013-09-22 07:54:00,51.1,49.4,29.58,North,358,1.0,12.0,94,0.00,OVC,OVC,0.11,WeatherDisplay:10.37,2013-09-22 11:54:00,
2013-09-22 07:59:00,51.1,49.4,29.58,North,353,2.0,12.0,94,0.00,OVC,OVC,0.11,WeatherDisplay:10.37,2013-09-22 11:59:00,
2013-09-22 08:04:00,51.0,49.3,29.58,NW,325,0.0,9.0,94,0.00,OVC,OVC,0.11,WeatherDisplay:10.37,2013-09-22 12:04:00,
2013-09-22 08:09:00,50.9,49.2,29.58,NNW,345,5.0,8.0,94,0.00,OVC,OVC,0.11,WeatherDisplay:10.37,2013-09-22 12:09:00,
2013-09-22 08:14:00,50.9,49.2,29.59,NNW,327,3.0,10.0,94,0.00,BKN,OVC,0.11,WeatherDisplay:10.37,2013-09-22 12:14:00,
2013-09-22 08:20:00,50.9,49.2,29.59,NNW,331,2.0,12.0,94,0.00,BKN,OVC,0.11,WeatherDisplay:10.37,2013-09-22 12:20:00,
2013-09-22 08:29:00,51.2,49.2,29.59,NW,318,2.0,9.0,93,0.00,RA,OVC,0.12,WeatherDisplay:10.37,2013-09-22 12:29:00,
2013-09-22 08:34:00,51.6,49.6,29.60,NNW,333,1.0,9.0,93,0.00,BKN,OVC,0.12,WeatherDisplay:10.37,2013-09-22 12:34:00,
2013-09-22 08:39:00,51.7,49.5,29.60,NNW,339,3.0,9.0,92,0.00,BKN,OVC,0.12,WeatherDisplay:10.37,2013-09-22 12:39:00,
2013-09-22 08:44:00,51.6,49.4,29.61,NW,319,5.0,10.0,92,0.00,BKN,OVC,0.12,WeatherDisplay:10.37,2013-09-22 12:44:00,
2013-09-22 08:49:00,51.5,49.3,29.61,NW,316,6.0,12.0,92,0.00,BKN,OVC,0.12,WeatherDisplay:10.37,2013-09-22 12:49:00,
2013-09-22 08:54:00,51.5,49.2,29.61,WNW,300,3.0,10.0,92,0.00,BKN,OVC,0.12,WeatherDisplay:10.37,2013-09-22 12:54:00,
2013-09-22 08:59:00,51.4,48.6,29.62,NNW,328,5.0,10.0,90,0.00,BKN,OVC,0.12,WeatherDisplay:10.37,2013-09-22 12:59:00,
2013-09-22 09:04:00,51.4,48.9,29.62,NNW,328,5.0,12.0,91,0.00,BKN,OVC,0.12,WeatherDisplay:10.37,2013-09-22 13:04:00,
2013-09-22 09:09:00,51.3,48.8,29.62,NNW,329,1.0,9.0,91,0.00,BKN,OVC,0.12,WeatherDisplay:10.37,2013-09-22 13:09:00,
2013-09-22 09:14:00,51.3,48.5,29.62,NW,325,2.0,9.0,90,0.00,BKN,OVC,0.12,WeatherDisplay:10.37,2013-09-22 13:14:00,
2013-09-22 09:19:00,51.1,48.6,29.62,NNW,327,2.0,9.0,91,0.00,BKN,OVC,0.12,WeatherDisplay:10.37,2013-09-22 13:19:00,
2013-09-22 09:24:00,51.0,48.5,29.62,NW,321,1.0,6.0,91,0.00,BKN,OVC,0.12,WeatherDisplay:10.37,2013-09-22 13:24:00,
2013-09-22 09:30:00,51.0,48.5,29.63,NW,321,3.0,7.0,91,0.00,BKN,OVC,0.12,WeatherDisplay:10.37,2013-09-22 13:30:00,
2013-09-22 09:39:00,51.1,48.3,29.63,NNW,327,2.0,7.0,90,0.00,BKN,OVC,0.12,WeatherDisplay:10.37,2013-09-22 13:39:00,
2013-09-22 09:44:00,51.2,48.4,29.63,NW,314,1.0,8.0,90,0.00,BKN,OVC,0.12,WeatherDisplay:10.37,2013-09-22 13:44:00,
2013-09-22 09:49:00,51.5,48.7,29.64,NW,313,0.0,4.0,90,0.00,BKN,OVC,0.12,WeatherDisplay:10.37,2013-09-22 13:49:00,
2013-09-22 09:54:00,51.6,48.2,29.64,NW,319,1.0,9.0,88,0.00,BKN,OVC,0.12,WeatherDisplay:10.37,2013-09-22 13:54:00,
2013-09-22 09:59:00,51.7,48.2,29.64,NNW,332,3.0,9.0,88,0.00,BKN,OVC,0.12,WeatherDisplay:10.37,2013-09-22 13:59:00,
2013-09-22 10:09:00,51.9,48.5,29.65,WNW,298,1.0,5.0,88,0.00,BKN,OVC,0.12,WeatherDisplay:10.37,2013-09-22 14:09:00,
2013-09-22 11:04:00,52.1,48.0,29.68,NW,313,1.0,8.0,86,0.00,OVC,OVC,0.12,WeatherDisplay:10.37,2013-09-22 15:04:00,
2013-09-22 11:14:00,52.6,48.2,29.68,NW,304,3.0,11.0,85,0.00,OVC,OVC,0.12,WeatherDisplay:10.37,2013-09-22 15:14:00,
2013-09-22 11:19:00,52.8,47.8,29.68,WNW,296,3.0,12.0,83,0.00,OVC,OVC,0.12,WeatherDisplay:10.37,2013-09-22 15:19:00,
2013-09-22 11:24:00,53.2,47.8,29.68,NW,313,6.0,10.0,82,0.00,OVC,OVC,0.12,WeatherDisplay:10.37,2013-09-22 15:24:00,
2013-09-22 11:29:00,53.5,47.8,29.68,NW,324,2.0,10.0,81,0.00,OVC,OVC,0.12,WeatherDisplay:10.37,2013-09-22 15:29:00,
2013-09-22 11:34:00,53.5,47.8,29.68,NW,323,5.0,10.0,81,0.00,OVC,OVC,0.12,WeatherDisplay:10.37,2013-09-22 15:34:00,
2013-09-22 11:39:00,53.4,47.7,29.68,NW,306,6.0,12.0,81,0.00,OVC,OVC,0.12,WeatherDisplay:10.37,2013-09-22 15:39:00,
2013-09-22 11:44:00,53.1,47.4,29.68,NW,307,2.0,16.0,81,0.00,OVC,OVC,0.12,WeatherDisplay:10.37,2013-09-22 15:44:00,
2013-09-22 11:49:00,53.4,47.7,29.68,NW,321,5.0,9.0,81,0.00,OVC,OVC,0.12,WeatherDisplay:10.37,2013-09-22 15:49:00,
2013-09-22 11:54:00,54.0,48.0,29.69,NW,304,3.0,10.0,80,0.00,OVC,OVC,0.12,WeatherDisplay:10.37,2013-09-22 15:54:00,
2013-09-22 11:59:00,54.1,47.0,29.69,WNW,302,5.0,8.0,77,0.00,OVC,OVC,0.12,WeatherDisplay:10.37,2013-09-22 15:59:00,
2013-09-22 12:04:00,54.1,47.4,29.69,NNW,329,2.0,10.0,78,0.00,OVC,OVC,0.12,WeatherDisplay:10.37,2013-09-22 16:04:00,
2013-09-22 12:09:00,54.0,47.3,29.69,NW,322,1.0,10.0,78,0.00,OVC,OVC,0.12,WeatherDisplay:10.37,2013-09-22 16:09:00,
2013-09-22 12:14:00,54.0,47.3,29.70,NW,326,3.0,9.0,78,0.00,BKN,OVC,0.12,WeatherDisplay:10.37,2013-09-22 16:14:00,
2013-09-22 12:19:00,54.0,47.0,29.69,NNW,328,2.0,10.0,77,0.00,BKN,OVC,0.12,WeatherDisplay:10.37,2013-09-22 16:19:00,
2013-09-22 12:24:00,54.4,46.6,29.69,NW,319,3.0,9.0,75,0.00,BKN,OVC,0.12,WeatherDisplay:10.37,2013-09-22 16:24:00,
2013-09-22 12:29:00,54.7,47.3,29.70,NW,314,2.0,9.0,76,0.00,BKN,OVC,0.12,WeatherDisplay:10.37,2013-09-22 16:29:00,
2013-09-22 12:34:00,54.8,47.4,29.70,NNW,333,2.0,9.0,76,0.00,BKN,OVC,0.12,WeatherDisplay:10.37,2013-09-22 16:34:00,
2013-09-22 12:39:00,54.5,46.4,29.70,NW,314,6.0,14.0,74,0.00,BKN,OVC,0.12,WeatherDisplay:10.37,2013-09-22 16:39:00,
2013-09-22 12:44:00,54.2,46.4,29.70,WNW,301,3.0,10.0,75,0.00,BKN,OVC,0.12,WeatherDisplay:10.37,2013-09-22 16:44:00,
2013-09-22 12:54:00,56.1,47.5,29.70,West,279,2.0,12.0,73,0.00,BKN,OVC,0.12,WeatherDisplay:10.37,2013-09-22 16:54:00,
2013-09-22 12:59:00,55.9,46.6,29.70,North,351,3.0,10.0,71,0.00,BKN,OVC,0.12,WeatherDisplay:10.37,2013-09-22 16:59:00,
2013-09-22 13:04:00,55.5,45.8,29.70,NNW,329,3.0,12.0,70,0.00,BKN,OVC,0.12,WeatherDisplay:10.37,2013-09-22 17:04:00,
2013-09-22 13:09:00,55.6,46.4,29.70,WNW,301,2.0,7.0,71,0.00,BKN,OVC,0.12,WeatherDisplay:10.37,2013-09-22 17:09:00,
2013-09-22 13:14:00,55.7,45.3,29.70,WNW,301,8.0,14.0,68,0.00,BKN,OVC,0.12,WeatherDisplay:10.37,2013-09-22 17:14:00,
2013-09-22 13:19:00,55.5,45.5,29.70,WNW,300,5.0,13.0,69,0.00,BKN,OVC,0.12,WeatherDisplay:10.37,2013-09-22 17:19:00,
2013-09-22 13:24:00,55.3,44.5,29.71,NW,323,5.0,12.0,67,0.00,BKN,OVC,0.12,WeatherDisplay:10.37,2013-09-22 17:24:00,
2013-09-22 13:29:00,55.2,44.4,29.71,NW,321,7.0,12.0,67,0.00,BKN,OVC,0.12,WeatherDisplay:10.37,2013-09-22 17:29:00,
2013-09-22 13:34:00,55.6,44.8,29.70,WNW,303,3.0,8.0,67,0.00,BKN,OVC,0.12,WeatherDisplay:10.37,2013-09-22 17:34:00,
2013-09-22 13:39:00,56.2,45.0,29.70,WNW,286,6.0,15.0,66,0.00,BKN,OVC,0.12,WeatherDisplay:10.37,2013-09-22 17:39:00,
2013-09-22 13:44:00,56.1,44.5,29.71,WNW,295,5.0,12.0,65,0.00,BKN,OVC,0.12,WeatherDisplay:10.37,2013-09-22 17:44:00,
2013-09-22 13:49:00,56.1,44.9,29.71,WNW,299,3.0,9.0,66,0.00,BKN,OVC,0.12,WeatherDisplay:10.37,2013-09-22 17:49:00,
2013-09-22 13:54:00,56.3,45.5,29.71,NW,319,3.0,9.0,67,0.00,BKN,OVC,0.12,WeatherDisplay:10.37,2013-09-22 17:54:00,
2013-09-22 13:59:00,55.4,44.2,29.71,NW,304,5.0,13.0,66,0.00,BKN,OVC,0.12,WeatherDisplay:10.37,2013-09-22 17:59:00,
2013-09-22 14:04:00,54.2,44.6,29.71,NW,312,3.0,7.0,70,0.00,BKN,OVC,0.12,WeatherDisplay:10.37,2013-09-22 18:04:00,
2013-09-22 14:09:00,53.8,44.2,29.72,NNW,332,2.0,10.0,70,0.00,BKN,OVC,0.12,WeatherDisplay:10.37,2013-09-22 18:09:00,
2013-09-22 14:14:00,54.2,44.6,29.72,NNW,333,5.0,8.0,70,0.00,BKN,OVC,0.12,WeatherDisplay:10.37,2013-09-22 18:14:00,
2013-09-22 14:19:00,54.3,44.3,29.72,NW,324,6.0,10.0,69,0.00,BKN,OVC,0.12,WeatherDisplay:10.37,2013-09-22 18:19:00,
2013-09-22 14:24:00,54.5,44.5,29.72,WNW,300,3.0,9.0,69,0.00,BKN,OVC,0.12,WeatherDisplay:10.37,2013-09-22 18:24:00,
2013-09-22 14:29:00,55.1,46.2,29.71,WNW,303,0.0,7.0,72,0.00,BKN,OVC,0.12,WeatherDisplay:10.37,2013-09-22 18:29:00,
2013-09-22 14:34:00,55.9,45.5,29.71,NW,306,3.0,8.0,68,0.00,BKN,OVC,0.12,WeatherDisplay:10.37,2013-09-22 18:34:00,
2013-09-22 14:39:00,56.1,44.9,29.72,WNW,299,8.0,16.0,66,0.00,BKN,OVC,0.12,WeatherDisplay:10.37,2013-09-22 18:39:00,
2013-09-22 14:44:00,54.3,45.1,29.72,NW,308,7.0,12.0,71,0.00,BKN,OVC,0.12,WeatherDisplay:10.37,2013-09-22 18:44:00,
2013-09-22 14:49:00,53.4,45.3,29.72,WNW,293,3.0,12.0,74,0.00,BKN,OVC,0.12,WeatherDisplay:10.37,2013-09-22 18:49:00,
2013-09-22 14:54:00,54.6,45.0,29.72,WNW,295,3.0,9.0,70,0.00,BKN,OVC,0.12,WeatherDisplay:10.37,2013-09-22 18:54:00,
2013-09-22 14:59:00,55.3,44.1,29.72,WNW,300,5.0,10.0,66,0.00,BKN,OVC,0.12,WeatherDisplay:10.37,2013-09-22 18:59:00,
2013-09-22 15:04:00,55.5,45.1,29.73,NW,309,2.0,10.0,68,0.00,BKN,OVC,0.12,WeatherDisplay:10.37,2013-09-22 19:04:00,
2013-09-22 15:09:00,56.1,44.9,29.73,North,2,6.0,15.0,66,0.00,BKN,OVC,0.12,WeatherDisplay:10.37,2013-09-22 19:09:00,
2013-09-22 15:14:00,54.4,44.8,29.74,NNW,341,7.0,13.0,70,0.00,BKN,OVC,0.12,WeatherDisplay:10.37,2013-09-22 19:14:00,
2013-09-22 15:19:00,52.8,45.4,29.74,NNW,328,1.0,11.0,76,0.00,BKN,OVC,0.12,WeatherDisplay:10.37,2013-09-22 19:19:00,
2013-09-22 15:24:00,52.9,45.5,29.74,NW,318,3.0,8.0,76,0.00,BKN,OVC,0.12,WeatherDisplay:10.37,2013-09-22 19:24:00,
2013-09-22 15:29:00,53.5,45.4,29.74,NW,315,5.0,10.0,74,0.00,BKN,OVC,0.12,WeatherDisplay:10.37,2013-09-22 19:29:00,
2013-09-22 15:34:00,54.5,45.7,29.74,NW,314,6.0,12.0,72,0.00,BKN,OVC,0.12,WeatherDisplay:10.37,2013-09-22 19:34:00,
2013-09-22 15:39:00,55.1,45.1,29.74,NW,313,8.0,15.0,69,0.00,BKN,OVC,0.12,WeatherDisplay:10.37,2013-09-22 19:39:00,
2013-09-22 15:44:00,54.9,45.0,29.74,NW,311,6.0,12.0,69,0.00,BKN,OVC,0.12,WeatherDisplay:10.37,2013-09-22 19:44:00,
2013-09-22 15:49:00,54.2,46.1,29.74,NNW,327,2.0,6.0,74,0.00,BKN,OVC,0.12,WeatherDisplay:10.37,2013-09-22 19:49:00,
2013-09-22 15:54:00,53.6,45.5,29.74,NW,321,5.0,7.0,74,0.00,BKN,OVC,0.12,WeatherDisplay:10.37,2013-09-22 19:54:00,
2013-09-22 15:59:00,53.4,45.3,29.74,NNW,344,2.0,9.0,74,0.00,BKN,OVC,0.12,WeatherDisplay:10.37,2013-09-22 19:59:00,
2013-09-22 16:04:00,53.3,45.9,29.74,North,352,2.0,5.0,76,0.00,BKN,OVC,0.12,WeatherDisplay:10.37,2013-09-22 20:04:00,
2013-09-22 16:09:00,53.3,45.3,29.75,NNW,332,3.0,9.0,74,0.00,BKN,OVC,0.12,WeatherDisplay:10.37,2013-09-22 20:09:00,
2013-09-22 16:14:00,54.2,45.3,29.75,NW,314,5.0,9.0,72,0.00,BKN,OVC,0.12,WeatherDisplay:10.37,2013-09-22 20:14:00,
2013-09-22 16:19:00,54.5,44.1,29.75,NNW,328,6.0,15.0,68,0.00,BKN,OVC,0.12,WeatherDisplay:10.37,2013-09-22 20:19:00,
2013-09-22 16:24:00,53.8,44.3,29.75,North,349,3.0,9.0,70,0.00,BKN,OVC,0.12,WeatherDisplay:10.37,2013-09-22 20:24:00,
2013-09-22 16:29:00,53.2,44.1,29.76,NNW,348,3.0,13.0,71,0.00,BKN,OVC,0.12,WeatherDisplay:10.37,2013-09-22 20:29:00,
2013-09-22 16:34:00,52.4,44.7,29.76,NNW,327,5.0,14.0,75,0.00,BKN,OVC,0.12,WeatherDisplay:10.37,2013-09-22 20:34:00,
2013-09-22 16:39:00,51.5,44.5,29.76,NW,310,6.0,12.0,77,0.00,BKN,OVC,0.12,WeatherDisplay:10.37,2013-09-22 20:39:00,
2013-09-22 16:44:00,51.4,44.8,29.76,NW,310,1.0,9.0,78,0.00,BKN,OVC,0.12,WeatherDisplay:10.37,2013-09-22 20:44:00,
2013-09-22 16:49:00,51.7,44.4,29.77,NW,313,3.0,9.0,76,0.00,BKN,OVC,0.12,WeatherDisplay:10.37,2013-09-22 20:49:00,
2013-09-22 16:54:00,51.8,44.1,29.77,NW,318,2.0,9.0,75,0.00,BKN,OVC,0.12,WeatherDisplay:10.37,2013-09-22 20:54:00,
2013-09-22 16:59:00,51.8,43.8,29.77,NW,323,5.0,10.0,74,0.00,BKN,OVC,0.12,WeatherDisplay:10.37,2013-09-22 20:59:00,
2013-09-22 17:04:00,51.7,43.7,29.77,NW,315,1.0,7.0,74,0.00,BKN,OVC,0.12,WeatherDisplay:10.37,2013-09-22 21:04:00,
2013-09-22 17:09:00,51.7,43.3,29.77,NNW,333,6.0,12.0,73,0.00,BKN,OVC,0.12,WeatherDisplay:10.37,2013-09-22 21:09:00,
2013-09-22 17:14:00,52.3,44.3,29.78,NNW,342,2.0,12.0,74,0.00,BKN,OVC,0.12,WeatherDisplay:10.37,2013-09-22 21:14:00,
2013-09-22 17:19:00,53.0,44.2,29.78,NNW,344,5.0,12.0,72,0.00,BKN,OVC,0.12,WeatherDisplay:10.37,2013-09-22 21:19:00,
2013-09-22 17:24:00,52.9,43.7,29.78,NW,325,6.0,12.0,71,0.00,BKN,OVC,0.12,WeatherDisplay:10.37,2013-09-22 21:24:00,
2013-09-22 17:29:00,52.5,43.7,29.78,NW,326,5.0,12.0,72,0.00,BKN,OVC,0.12,WeatherDisplay:10.37,2013-09-22 21:29:00,
2013-09-22 17:34:00,52.5,44.1,29.78,NW,326,1.0,8.0,73,0.00,BKN,OVC,0.12,WeatherDisplay:10.37,2013-09-22 21:34:00,
2013-09-22 17:39:00,52.5,44.1,29.78,NW,315,1.0,10.0,73,0.00,BKN,OVC,0.12,WeatherDisplay:10.37,2013-09-22 21:39:00,
2013-09-22 17:44:00,52.3,42.8,29.79,WNW,297,6.0,10.0,70,0.00,BKN,OVC,0.12,WeatherDisplay:10.37,2013-09-22 21:44:00,
2013-09-22 17:49:00,52.0,42.9,29.79,WNW,303,6.0,12.0,71,0.00,BKN,OVC,0.12,WeatherDisplay:10.37,2013-09-22 21:49:00,
2013-09-22 17:54:00,51.9,42.8,29.79,WNW,293,5.0,12.0,71,0.00,BKN,OVC,0.12,WeatherDisplay:10.37,2013-09-22 21:54:00,
2013-09-22 17:59:00,51.7,42.9,29.79,NW,309,5.0,10.0,72,0.00,BKN,OVC,0.12,WeatherDisplay:10.37,2013-09-22 21:59:00,
2013-09-22 18:04:00,51.3,42.6,29.79,NW,325,3.0,10.0,72,0.00,BKN,OVC,0.12,WeatherDisplay:10.37,2013-09-22 22:04:00,
2013-09-22 18:09:00,51.1,42.7,29.79,NNW,340,5.0,12.0,73,0.00,BKN,OVC,0.12,WeatherDisplay:10.37,2013-09-22 22:09:00,
2013-09-22 18:14:00,50.7,42.7,29.79,NNW,344,5.0,10.0,74,0.00,BKN,OVC,0.12,WeatherDisplay:10.37,2013-09-22 22:14:00,
2013-09-22 18:19:00,50.4,42.8,29.79,NNW,329,6.0,12.0,75,0.00,BKN,OVC,0.12,WeatherDisplay:10.37,2013-09-22 22:19:00,
2013-09-22 18:24:00,50.2,42.6,29.79,NW,305,6.0,12.0,75,0.00,BKN,OVC,0.12,WeatherDisplay:10.37,2013-09-22 22:24:00,
2013-09-22 18:29:00,50.1,42.5,29.80,NW,306,6.0,14.0,75,0.00,BKN,OVC,0.12,WeatherDisplay:10.37,2013-09-22 22:29:00,
2013-09-22 18:34:00,49.9,42.6,29.80,NW,313,3.0,7.0,76,0.00,BKN,OVC,0.12,WeatherDisplay:10.37,2013-09-22 22:34:00,
2013-09-22 18:39:00,49.7,42.4,29.80,NW,314,2.0,7.0,76,0.00,BKN,OVC,0.12,WeatherDisplay:10.37,2013-09-22 22:39:00,
2013-09-22 18:44:00,49.5,42.2,29.80,NW,316,3.0,9.0,76,0.00,BKN,OVC,0.12,WeatherDisplay:10.37,2013-09-22 22:44:00,
2013-09-22 18:49:00,49.2,42.3,29.81,NW,325,0.0,5.0,77,0.00,BKN,OVC,0.12,WeatherDisplay:10.37,2013-09-22 22:49:00,
2013-09-22 18:54:00,48.9,42.3,29.81,NW,325,3.0,9.0,78,0.00,BKN,OVC,0.12,WeatherDisplay:10.37,2013-09-22 22:54:00,
2013-09-22 18:59:00,48.6,42.1,29.81,NNW,328,2.0,7.0,78,0.00,BKN,OVC,0.12,WeatherDisplay:10.37,2013-09-22 22:59:00,
2013-09-22 19:04:00,48.5,41.9,29.81,NW,319,3.0,8.0,78,0.00,BKN,OVC,0.12,WeatherDisplay:10.37,2013-09-22 23:04:00,
2013-09-22 19:09:00,48.3,41.8,29.82,NW,315,3.0,10.0,78,0.00,BKN,OVC,0.12,WeatherDisplay:10.37,2013-09-22 23:09:00,
2013-09-22 19:14:00,48.3,41.7,29.82,NW,315,2.0,10.0,78,0.00,BKN,OVC,0.12,WeatherDisplay:10.37,2013-09-22 23:14:00,
2013-09-22 19:19:00,48.1,41.9,29.82,NW,314,1.0,10.0,79,0.00,BKN,OVC,0.12,WeatherDisplay:10.37,2013-09-22 23:19:00,
2013-09-22 19:24:00,47.9,41.7,29.82,NW,316,2.0,7.0,79,0.00,BKN,OVC,0.12,WeatherDisplay:10.37,2013-09-22 23:24:00,
2013-09-22 19:29:00,47.8,41.6,29.83,NW,308,3.0,8.0,79,0.00,BKN,OVC,0.12,WeatherDisplay:10.37,2013-09-22 23:29:00,
2013-09-22 19:34:00,47.7,41.2,29.83,NW,315,3.0,10.0,78,0.00,BKN,OVC,0.12,WeatherDisplay:10.37,2013-09-22 23:34:00,
2013-09-22 19:39:00,47.5,41.0,29.83,NW,322,5.0,8.0,78,0.00,BKN,OVC,0.12,WeatherDisplay:10.37,2013-09-22 23:39:00,
2013-09-22 19:44:00,47.4,41.3,29.84,NW,323,2.0,12.0,79,0.00,BKN,OVC,0.12,WeatherDisplay:10.37,2013-09-22 23:44:00,
2013-09-22 19:49:00,47.3,41.1,29.84,NNW,333,1.0,8.0,79,0.00,BKN,OVC,0.12,WeatherDisplay:10.37,2013-09-22 23:49:00,
2013-09-22 19:54:00,47.2,41.3,29.84,NNW,331,1.0,5.0,80,0.00,BKN,OVC,0.12,WeatherDisplay:10.37,2013-09-22 23:54:00,
2013-09-22 19:59:00,47.0,41.5,29.84,NW,321,0.0,3.0,81,0.00,BKN,OVC,0.12,WeatherDisplay:10.37,2013-09-22 23:59:00,
2013-09-22 20:09:00,46.6,41.4,29.85,NNW,329,1.0,4.0,82,0.00,BKN,OVC,0.12,WeatherDisplay:10.37,2013-09-23 00:09:00,
2013-09-22 20:14:00,46.5,41.6,29.85,NNW,338,1.0,4.0,83,0.00,SCT,OVC,0.12,WeatherDisplay:10.37,2013-09-23 00:14:00,
2013-09-22 20:19:00,46.5,41.3,29.85,NW,317,0.0,5.0,82,0.00,SCT,OVC,0.12,WeatherDisplay:10.37,2013-09-23 00:19:00,
2013-09-22 20:24:00,46.3,41.1,29.85,NW,310,1.0,4.0,82,0.00,SCT,OVC,0.12,WeatherDisplay:10.37,2013-09-23 00:24:00,
2013-09-22 20:29:00,46.3,41.1,29.85,WNW,295,1.0,5.0,82,0.00,SCT,OVC,0.12,WeatherDisplay:10.37,2013-09-23 00:29:00,
2013-09-22 20:34:00,46.2,41.0,29.86,WNW,298,1.0,4.0,82,0.00,SCT,OVC,0.12,WeatherDisplay:10.37,2013-09-23 00:34:00,
2013-09-22 20:39:00,46.0,41.1,29.86,NW,307,1.0,3.0,83,0.00,SCT,OVC,0.12,WeatherDisplay:10.37,2013-09-23 00:39:00,
2013-09-22 20:44:00,45.9,41.3,29.86,NW,307,1.0,4.0,84,0.00,SCT,OVC,0.12,WeatherDisplay:10.37,2013-09-23 00:44:00,
2013-09-22 20:49:00,45.8,41.2,29.86,WNW,301,0.0,4.0,84,0.00,SCT,OVC,0.12,WeatherDisplay:10.37,2013-09-23 00:49:00,
2013-09-22 20:54:00,45.8,41.2,29.86,NW,316,1.0,5.0,84,0.00,SCT,OVC,0.12,WeatherDisplay:10.37,2013-09-23 00:54:00,
2013-09-22 20:59:00,45.9,41.0,29.86,NW,311,1.0,6.0,83,0.00,SCT,OVC,0.12,WeatherDisplay:10.37,2013-09-23 00:59:00,
2013-09-22 21:04:00,46.1,40.9,29.86,NNW,327,5.0,7.0,82,0.00,SCT,OVC,0.12,WeatherDisplay:10.37,2013-09-23 01:04:00,
2013-09-22 21:09:00,46.3,41.1,29.86,NNW,329,1.0,5.0,82,0.00,SCT,OVC,0.12,WeatherDisplay:10.37,2013-09-23 01:09:00,
2013-09-22 21:14:00,46.4,40.9,29.86,NW,326,2.0,6.0,81,0.00,SCT,OVC,0.12,WeatherDisplay:10.37,2013-09-23 01:14:00,
2013-09-22 21:19:00,46.5,40.7,29.86,NW,323,3.0,7.0,80,0.00,SCT,OVC,0.12,WeatherDisplay:10.37,2013-09-23 01:19:00,
2013-09-22 21:24:00,46.6,40.8,29.86,NW,316,2.0,8.0,80,0.00,SCT,OVC,0.12,WeatherDisplay:10.37,2013-09-23 01:24:00,
2013-09-22 21:29:00,46.6,40.8,29.86,NW,321,0.0,8.0,80,0.00,SCT,OVC,0.12,WeatherDisplay:10.37,2013-09-23 01:29:00,
2013-09-22 21:34:00,46.6,40.8,29.86,NNW,338,2.0,6.0,80,0.00,SCT,OVC,0.12,WeatherDisplay:10.37,2013-09-23 01:34:00,
2013-09-22 21:39:00,46.6,40.7,29.87,NNW,329,1.0,6.0,80,0.00,SCT,OVC,0.12,WeatherDisplay:10.37,2013-09-23 01:39:00,
2013-09-22 21:44:00,46.6,40.8,29.87,NW,325,2.0,7.0,80,0.00,SCT,OVC,0.12,WeatherDisplay:10.37,2013-09-23 01:44:00,
2013-09-22 21:49:00,46.5,40.7,29.87,NNW,332,1.0,4.0,80,0.00,SCT,OVC,0.12,WeatherDisplay:10.37,2013-09-23 01:49:00,
2013-09-22 21:54:00,46.5,40.7,29.87,NNW,336,1.0,7.0,80,0.00,SCT,OVC,0.12,WeatherDisplay:10.37,2013-09-23 01:54:00,
2013-09-22 21:59:00,46.5,40.7,29.87,NNW,336,0.0,7.0,80,0.00,SCT,OVC,0.12,WeatherDisplay:10.37,2013-09-23 01:59:00,
2013-09-22 22:04:00,46.5,41.0,29.88,NNW,345,0.0,5.0,81,0.00,SCT,OVC,0.12,WeatherDisplay:10.37,2013-09-23 02:04:00,
2013-09-22 22:09:00,46.4,40.9,29.88,North,352,0.0,5.0,81,0.00,SCT,OVC,0.12,WeatherDisplay:10.37,2013-09-23 02:09:00,
2013-09-22 22:14:00,46.3,40.5,29.88,NNW,331,1.0,6.0,80,0.00,BKN,OVC,0.12,WeatherDisplay:10.37,2013-09-23 02:14:00,
2013-09-22 22:19:00,46.2,40.4,29.88,NW,318,1.0,8.0,80,0.00,BKN,OVC,0.12,WeatherDisplay:10.37,2013-09-23 02:19:00,
2013-09-22 22:24:00,46.1,40.2,29.88,NNW,343,2.0,8.0,80,0.00,BKN,OVC,0.12,WeatherDisplay:10.37,2013-09-23 02:24:00,
2013-09-22 22:29:00,45.8,40.3,29.88,NNW,341,0.0,3.0,81,0.00,BKN,OVC,0.12,WeatherDisplay:10.37,2013-09-23 02:29:00,
2013-09-22 22:34:00,45.5,40.0,29.88,NNW,344,1.0,7.0,81,0.00,BKN,OVC,0.12,WeatherDisplay:10.37,2013-09-23 02:34:00,
2013-09-22 22:39:00,45.4,40.2,29.88,NNW,340,2.0,6.0,82,0.00,BKN,OVC,0.12,WeatherDisplay:10.37,2013-09-23 02:39:00,
2013-09-22 22:44:00,45.3,40.1,29.88,NW,321,1.0,5.0,82,0.00,BKN,OVC,0.12,WeatherDisplay:10.37,2013-09-23 02:44:00,
2013-09-22 22:49:00,45.2,40.3,29.88,NW,326,0.0,3.0,83,0.00,BKN,OVC,0.12,WeatherDisplay:10.37,2013-09-23 02:49:00,
2013-09-22 22:54:00,45.2,40.3,29.89,NE,40,0.0,3.0,83,0.00,BKN,OVC,0.12,WeatherDisplay:10.37,2013-09-23 02:54:00,
2013-09-22 22:59:00,45.0,40.1,29.88,NNE,14,1.0,4.0,83,0.00,BKN,OVC,0.12,WeatherDisplay:10.37,2013-09-23 02:59:00,
2013-09-22 23:04:00,45.0,40.4,29.88,North,0,1.0,5.0,84,0.00,BKN,OVC,0.12,WeatherDisplay:10.37,2013-09-23 03:04:00,
2013-09-22 23:09:00,44.9,40.1,29.88,NW,314,2.0,4.0,83,0.00,BKN,OVC,0.12,WeatherDisplay:10.37,2013-09-23 03:09:00,
2013-09-22 23:14:00,44.9,40.0,29.89,NW,312,1.0,5.0,83,0.00,FEW,OVC,0.12,WeatherDisplay:10.37,2013-09-23 03:14:00,
2013-09-22 23:19:00,44.8,40.3,29.89,North,354,0.0,1.0,84,0.00,FEW,OVC,0.12,WeatherDisplay:10.37,2013-09-23 03:19:00,
2013-09-22 23:24:00,44.5,40.6,29.89,NW,309,0.0,2.0,86,0.00,FEW,OVC,0.12,WeatherDisplay:10.37,2013-09-23 03:24:00,
2013-09-22 23:29:00,44.3,40.4,29.89,West,281,0.0,1.0,86,0.00,FEW,OVC,0.12,WeatherDisplay:10.37,2013-09-23 03:29:00,
2013-09-22 23:34:00,44.1,39.9,29.89,WNW,300,0.0,3.0,85,0.00,FEW,OVC,0.12,WeatherDisplay:10.37,2013-09-23 03:34:00,
2013-09-22 23:39:00,44.1,39.9,29.89,WNW,292,0.0,4.0,85,0.00,FEW,OVC,0.12,WeatherDisplay:10.37,2013-09-23 03:39:00,
2013-09-22 23:44:00,44.0,39.8,29.89,WNW,284,1.0,5.0,85,0.00,FEW,OVC,0.12,WeatherDisplay:10.37,2013-09-23 03:44:00,
2013-09-22 23:49:00,43.9,40.0,29.89,West,274,0.0,3.0,86,0.00,FEW,OVC,0.12,WeatherDisplay:10.37,2013-09-23 03:49:00,
2013-09-22 23:54:00,43.5,39.9,29.89,SW,231,0.0,1.0,87,0.00,FEW,OVC,0.12,WeatherDisplay:10.37,2013-09-23 03:54:00,
2013-09-22 23:59:00,43.2,39.9,29.89,SW,225,0.0,0.0,88,0.00,RA,OVC,0.00,WeatherDisplay:10.37,2013-09-23 03:59:00,